{"data":{"norad_id":58691,"intl_designator":"2023-212A","name":"HULIANWANG JISHU SHIYAN*","alt_names":[],"object_type":"PAYLOAD","status":"ACTIVE","operator":null,"country":"PRC","launch_date":"2023-12-30","launch_site_code":"JSC","launch_vehicle":null,"mission":null,"orbit_class":"UNKNOWN","rcs_meters":null,"size_class":null,"mass_kg":null,"dimensions":null,"purposes":[],"wikipedia_slug":null,"has_3d_model":false,"image_url":null,"decayed_at":null,"tle_current":{"epoch":"2026-05-25T03:10:13.122048Z","epoch_age_seconds":66946,"freshness":"FRESH","line1":"1 58691U 23212A   26145.13209632 -.00000110  00000+0  32740-4 0  9995","line2":"2 58691  50.0009  68.2018 0001057  34.0363 326.0582 13.41455812118158","mean_motion":13.41455812,"eccentricity":0.0001057,"inclination_deg":50.0009,"raan_deg":68.2018,"arg_perigee_deg":34.0363,"mean_anomaly_deg":326.0582,"bstar":3.274e-5,"rev_number":11815,"period_min":107.34606292048,"perigee_km":1103.0702548792,"apogee_km":1104.6519492779,"semimajor_km":7481.9981020786,"source":"CELESTRAK","updated_at":"2026-05-25T13:38:00.910764Z"}}}